Massena, NY

9:45 PM EDT on September 23, 2017 (GMT -0400)
Massena International-Richards

Weather History for KMSS - November, 2014

Change the Weather History Date:

Saturday, November 8, 2014

  Actual Average Record
Temperature  
Mean Temperature 37 °F 38 °F  
Max Temperature 43 °F 47 °F 73 °F (1996)
Min Temperature 31 °F 30 °F 12 °F (1959)
Degree Days  
Heating Degree Days 28 27  
Month to date heating degree days 190 204  
Since 1 July heating degree days 879 1085  
Cooling Degree Days 0 0  
Month to date cooling degree days 0 0  
Year to date cooling degree days 336 363  
Moisture  
Dew Point 25 °F    
Average Humidity 75    
Maximum Humidity 96    
Minimum Humidity 54    
Precipitation  
Precipitation T in 0.10 in 1.18 in (1996)
Month to date precipitation 0.25 0.87  
Year to date precipitation 28.96 30.37  
Sea Level Pressure  
Sea Level Pressure 29.87 in    
Wind  
Wind Speed 8 mph (SSW)    
Max Wind Speed 16 mph    
Max Gust Speed 21 mph    
Visibility 10 miles    
Events Snow    
T = Trace of Precipitation, MM = Missing Value Source: NWS Daily Summary

Daily Weather History Graph

Daily Weather History Graph

Search for Another Location

Airport or City:

Trip Planner

Search our weather history database for the weather conditions in past years. The results will help you decide how hot, cold, wet, or windy it might be!

Date:

Astronomy

Nov. 08, 2014 Rise Set
Actual Time 6:47 AM EST 4:38 PM EST
Civil Twilight 6:16 AM EST 5:09 PM EST
Nautical Twilight 5:41 AM EST 5:44 PM EST
Astronomical Twilight 5:06 AM EST 6:18 PM EST
Moon 6:15 PM EST (11/8) 8:23 AM EST (11/8)
Length of Visible Light 10h 53m
Length of Day
9h 51m
Waning Gibbous, 96% of the Moon is Illuminated
Nov 8
Waning Gibbous
Nov 14
Last Quarter
Nov 22
New
Nov 29
First Quarter
Dec 6
Full

Hourly Weather History & Observations

Time (EST) Temp. Windchill Dew Point Humidity Pressure Visibility Wind Dir Wind Speed Gust Speed Precip Events Conditions
12:53 AM 33.1 °F 24.4 °F 19.9 °F 59% 29.94 in 10.0 mi West 11.5 mph - N/A   Overcast
1:53 AM 33.1 °F 23.9 °F 19.9 °F 59% 29.95 in 10.0 mi West 12.7 mph - N/A   Overcast
2:53 AM 32.0 °F 24.2 °F 19.0 °F 59% 29.96 in 10.0 mi West 9.2 mph - N/A   Overcast
3:53 AM 32.0 °F 23.6 °F 18.0 °F 56% 29.96 in 10.0 mi West 10.4 mph - N/A   Overcast
4:53 AM 32.0 °F 23.0 °F 19.0 °F 59% 29.96 in 10.0 mi WSW 11.5 mph - N/A   Overcast
5:53 AM 30.9 °F 22.8 °F 19.9 °F 64% 29.97 in 10.0 mi SW 9.2 mph - N/A   Overcast
6:53 AM 30.9 °F 26.2 °F 19.0 °F 61% 29.96 in 10.0 mi SW 4.6 mph - N/A   Overcast
7:53 AM 32.0 °F 26.4 °F 19.9 °F 61% 29.97 in 10.0 mi SW 5.8 mph - N/A   Overcast
8:53 AM 32.0 °F 26.4 °F 21.9 °F 66% 29.96 in 10.0 mi SSW 5.8 mph - N/A   Scattered Clouds
9:53 AM 34.0 °F 26.0 °F 21.9 °F 61% 29.94 in 10.0 mi SSW 10.4 mph - N/A   Partly Cloudy
10:53 AM 35.1 °F 27.9 °F 23.0 °F 61% 29.92 in 10.0 mi SSW 9.2 mph - N/A   Clear
11:53 AM 37.0 °F 33.3 °F 24.1 °F 59% 29.89 in 10.0 mi SSW 4.6 mph - N/A   Mostly Cloudy
12:53 PM 39.2 °F 33.0 °F 24.8 °F 56% 29.85 in 10.0 mi SSW 9.2 mph - N/A   Mostly Cloudy
1:53 PM 39.0 °F 33.4 °F 26.1 °F 60% 29.85 in 10.0 mi SSW 8.1 mph - N/A   Mostly Cloudy
2:53 PM 39.9 °F 33.9 °F 28.0 °F 63% 29.83 in 10.0 mi SSW 9.2 mph - N/A   Overcast
3:53 PM 37.0 °F 28.1 °F 28.0 °F 70% 29.84 in 10.0 mi South 15.0 mph - 0.00 in   Overcast
4:02 PM 36.0 °F 27.1 °F 30.0 °F 79% 29.82 in 6.0 mi SSW 13.8 mph - 0.00 in Snow Light Snow
4:53 PM 35.1 °F 30.1 °F 32.0 °F 89% 29.83 in 9.0 mi South 5.8 mph - 0.00 in   Overcast
5:53 PM 34.0 °F 29.8 °F 32.0 °F 92% 29.81 in 10.0 mi SE 4.6 mph - 0.00 in   Overcast
6:53 PM 35.1 °F 30.1 °F 32.0 °F 89% 29.78 in 10.0 mi SE 5.8 mph - N/A   Overcast
7:53 PM 35.1 °F 32.2 °F 32.0 °F 89% 29.76 in 10.0 mi ESE 3.5 mph - N/A   Overcast
8:53 PM 36.0 °F - 33.1 °F 89% 29.75 in 10.0 mi Calm Calm - N/A   Overcast
9:53 PM 37.0 °F 34.5 °F 32.0 °F 82% 29.73 in 10.0 mi South 3.5 mph - N/A   Overcast
10:53 PM 42.1 °F 34.5 °F 30.9 °F 65% 29.71 in 10.0 mi SSW 15.0 mph - 0.00 in   Overcast
11:53 PM 43.0 °F 36.0 °F 30.9 °F 62% 29.70 in 10.0 mi SSW 13.8 mph - N/A   Overcast